Home   Weather   Flåm   Past weeks
Flag for Norway

Past Weather in Flåm, Norway — Yesterday and Last 2 Weeks

Now
37 °F

Passing clouds.


Feels Like: 34 °F
Forecast: 44 / 35 °F
Wind: 5 mph from West

Location: Sogndal / Haukasen

Current Time: Sep 16, 2019 at 10:51:42 pm

Latest Report: Sep 16, 2019 at 9:20 pm


Visibility: N/A

Pressure: 29.68 "Hg

Humidity: 93%

Dew Point: 36 °F

Location of FlåmLocation

Past Weather in Flåm — Graph

°F

Flåm Temperature Yesterday

Maximum temperature yesterday: 46 °F (at 2:50 pm)
Minimum temperature yesterday: 41 °F (at 12:20 pm)
Average temperature yesterday: 44 °F

High & Low Weather Summary for the Past Weeks

 TemperatureHumidityPressure
High59 °F (Sep 8, 4:50 pm)100% (Sep 3, 6:50 am)30.21 "Hg (Sep 3, 6:50 am)
Low37 °F (Sep 16, 5:50 pm)42% (Sep 8, 4:50 pm)29.33 "Hg (Sep 15, 12:20 pm)
Average47 °F85%29.83 "Hg
* Reported Sep 1 9:20 pm — Sep 16 9:20 pm, Flåm. Weather by CustomWeather, © 2019

Note: Actual official high and low records may vary slightly from our data, if they occured in-between our weather recording intervals... More about our weather records

Advertising

Flåm Weather History for the Previous 24 Hours

Scroll right to see more
 ConditionsComfort  
Time TempWeatherWind HumidityBarometerVisibility
9:20 pm
Mon, Sep 16
37 °FPassing clouds.5 mph93%29.68 "HgN/A
8:50 pm37 °FScattered showers. Passing clouds.8 mph93%29.68 "HgN/A
8:20 pm39 °FRain showers. Passing clouds.12 mph93%29.71 "HgN/A
7:50 pm37 °FScattered clouds.2 mph100%29.68 "HgN/A
7:20 pm39 °FScattered clouds.N/A100%29.71 "HgN/A
6:50 pm41 °FScattered clouds.9 mph87%29.71 "HgN/A
6:20 pm41 °FScattered showers. Scattered clouds.21 mph87%29.71 "HgN/A
5:50 pm37 °FRain showers. Partly sunny.21 mph93%29.74 "HgN/A
5:20 pm41 °FRain showers. Partly sunny.17 mph93%29.74 "HgN/A
4:50 pm43 °FScattered showers. Partly sunny.12 mph87%29.71 "HgN/A
4:20 pm43 °FSprinkles. Partly sunny.10 mph87%29.74 "HgN/A
3:50 pm45 °FScattered showers. Partly sunny.8 mph81%29.74 "HgN/A
3:20 pm45 °FScattered showers. Partly sunny.8 mph81%29.74 "HgN/A
2:50 pm45 °FScattered showers. Partly sunny.9 mph76%29.77 "HgN/A
2:20 pm45 °FScattered showers. Partly sunny.12 mph81%29.77 "HgN/A
1:50 pm43 °FScattered showers. Partly sunny.10 mph87%29.77 "HgN/A
1:20 pm45 °FScattered showers. Partly sunny.14 mph76%29.77 "HgN/A
12:50 pm46 °FScattered showers. Scattered clouds.12 mph66%29.77 "HgN/A
12:20 pm45 °FScattered clouds.18 mph71%29.77 "HgN/A
11:50 am45 °FScattered clouds.16 mph71%29.77 "HgN/A
11:20 am45 °FScattered clouds.14 mph71%29.77 "HgN/A
10:50 am43 °FScattered showers. Partly sunny.16 mph76%29.77 "HgN/A
10:20 am41 °FScattered showers. Partly sunny.18 mph81%29.77 "HgN/A
8:50 am41 °FScattered showers. Scattered clouds.13 mph81%29.77 "HgN/A
8:20 am39 °FScattered clouds.15 mph87%29.74 "HgN/A
7:50 am39 °FScattered clouds.18 mph87%29.74 "HgN/A
7:20 am39 °FScattered showers. Scattered clouds.17 mph87%29.74 "HgN/A
6:50 am39 °FSprinkles. Passing clouds.17 mph87%29.74 "HgN/A
6:20 am39 °FSprinkles. Passing clouds.17 mph93%29.74 "HgN/A
5:50 am39 °FSprinkles. Passing clouds.20 mph87%29.74 "HgN/A
5:20 am39 °FSprinkles. Passing clouds.15 mph87%29.74 "HgN/A
Weather by CustomWeather, © 2019

See weather overview